Wind_Speed
16 17 19 21 23 25 27 29 31 32 34 35 36 37 38 38 39 39 38 38 37 38 38 39 39 38 38 38 37 37 36 36 34 32 31 31 31 30 32 34 33 34 35
14 16 18 21 22 24 25 27 29 31 32 34 35 36 36 36 37 37 37 36 36 36 36 37 37 37 37 37 37 37 36 35 35 33 30 30 30 31 32 33 35 35 35
13 15 17 18 20 21 23 24 26 28 30 32 33 34 35 35 36 36 36 35 34 33 33 34 35 35 35 35 35 35 35 34 34 33 30 29 29 28 31 33 34 34 35
11 13 15 17 19 20 22 23 24 26 28 29 31 32 32 33 33 33 34 34 34 33 33 32 32 32 32 33 33 33 33 33 32 32 31 30 29 28 28 30 32 33 33
12 14 16 18 20 21 22 24 25 26 28 29 30 31 32 32 33 33 34 34 34 34 33 32 30 30 30 30 30 30 30 31 31 31 30 30 29 29 29 30 31 32 32
14 16 19 21 22 24 26 27 28 30 31 32 33 33 34 34 34 35 35 35 36 36 35 34 33 31 30 30 30 30 29 29 29 30 30 30 31 30 30 30 32 32 32
18 20 22 24 26 28 30 31 32 33 34 35 35 36 36 36 36 37 37 37 38 38 38 38 37 35 33 32 31 31 31 30 29 30 30 30 31 32 33 32 32 32 33
21 23 25 28 30 31 33 34 35 36 36 37 37 37 37 37 38 38 39 39 39 40 40 40 39 38 36 34 33 33 32 32 32 31 31 31 31 33 34 34 33 33 34
24 26 28 31 33 35 36 37 38 38 38 38 37 37 38 38 39 39 40 40 40 40 41 40 40 39 38 37 36 35 34 34 34 34 34 34 33 33 33 35 35 35 36
26 28 30 33 35 36 38 39 39 39 38 38 38 38 39 39 39 39 40 40 40 40 40 40 40 40 39 39 38 38 38 37 37 37 37 37 37 36 36 35 36 37 37
28 30 32 34 36 37 39 39 39 39 38 38 39 39 40 40 40 40 40 41 40 40 40 40 40 40 40 40 40 40 40 40 40 40 40 40 41 40 40 39 38 38 39
28 31 33 36 37 38 39 39 38 38 38 39 39 40 41 41 41 41 41 41 40 40 40 40 40 40 40 41 42 42 43 43 43 44 44 44 44 44 44 44 42 41 41
30 32 35 37 38 38 38 38 38 39 39 40 41 41 42 42 42 42 42 40 40 40 40 39 39 40 41 42 43 44 45 46 46 46 47 47 48 48 47 47 47 45 44
31 34 36 37 37 37 37 38 39 40 41 42 42 43 43 43 43 42 41 40 40 40 39 39 40 41 42 43 44 46 47 47 48 48 48 49 50 51 51 50 50 50 48
33 35 37 37 38 38 39 39 40 42 43 44 44 45 44 44 43 42 41 41 40 40 39 39 40 41 42 44 45 46 48 49 50 51 51 51 52 53 55 55 54 53 52
33 36 37 38 38 39 40 41 42 43 44 46 46 46 46 44 43 42 41 40 40 39 39 40 40 41 41 43 44 45 46 47 48 50 52 53 53 54 56 58 58 57 56
34 36 37 38 39 40 41 42 43 45 46 47 47 47 46 45 44 42 41 41 40 39 39 39 39 40 41 42 43 43 43 44 45 46 48 49 51 52 56 59 61 61 60
35 37 38 39 40 41 42 43 44 46 47 48 48 48 47 45 44 43 42 41 40 39 39 38 39 39 40 40 40 40 40 41 41 42 44 45 47 49 52 57 61 63 63
36 37 39 40 41 42 42 43 45 46 48 49 49 48 47 46 45 43 42 41 40 39 38 38 39 39 38 38 38 38 38 38 38 38 40 42 44 46 50 54 58 62 64
36 38 39 40 41 42 43 44 45 47 48 49 49 48 48 46 45 43 42 40 39 38 38 38 38 37 37 36 36 35 34 34 33 33 35 37 40 43 47 51 55 59 63
37 38 40 41 42 43 44 45 46 47 48 49 49 49 48 46 45 43 42 40 39 38 38 38 36 36 35 34 32 31 29 28 27 28 29 32 35 39 44 48 52 56 61
37 39 41 42 42 43 44 45 46 47 48 48 49 49 48 46 44 43 41 40 39 38 37 36 35 34 32 30 28 26 24 22 21 21 22 25 29 34 39 44 48 51 56
38 39 41 42 43 43 44 45 46 47 48 48 48 48 48 46 44 42 40 39 38 37 36 34 32 31 29 28 24 22 19 16 14 14 16 20 25 30 34 40 44 47 51
39 40 42 42 43 43 44 45 46 47 48 48 48 48 47 45 43 42 40 38 38 36 34 32 31 29 28 26 22 18 15 11 8 7 10 14 19 25 30 36 39 41 46
41 42 42 42 42 43 44 45 45 46 47 47 47 47 46 44 42 40 39 38 37 35 32 31 29 28 26 23 19 15 11 7 4 3 6 10 16 22 27 31 35 38 41
42 43 43 43 43 44 44 45 45 46 47 47 46 46 45 43 41 39 38 38 36 34 31 30 28 26 23 21 17 13 9 4 1 3 5 8 13 19 23 27 31 35 38
Wind_Direction
288 290 292 292 293 294 294 294 295 295 295 294 294 294 293 293 292 291 290 289 287 285 284 282 281 280 279 277 276 275 275 276 277 275 272 267 259 253 245 239 237 235 232
296 297 297 297 296 296 296 296 296 296 296 296 296 295 295 294 293 292 291 289 287 285 282 281 280 279 278 276 275 274 273 274 273 271 270 265 258 252 246 242 238 235 232
303 303 304 304 304 303 303 302 301 300 299 298 298 298 297 297 296 295 294 292 291 288 285 283 281 279 277 275 273 272 271 270 270 267 266 263 258 253 247 243 237 233 232
311 314 315 315 314 312 310 308 307 305 304 303 302 301 300 299 298 298 297 296 295 293 290 287 284 281 277 274 272 271 270 268 266 264 262 260 256 251 246 239 236 232 231
328 330 327 323 320 318 317 315 313 311 310 309 308 306 305 303 302 300 300 298 296 295 293 291 287 283 279 275 273 270 268 266 264 261 258 254 252 248 244 240 236 233 231
340 336 333 330 328 326 325 323 321 319 317 315 313 311 309 307 305 303 301 299 297 295 293 291 288 284 279 275 272 270 266 264 262 259 255 251 247 244 242 240 237 233 230
345 341 338 335 333 331 329 327 325 322 320 318 315 313 311 309 306 304 302 300 298 295 293 291 288 284 279 275 271 269 266 262 259 257 254 251 248 244 240 236 233 232 229
344 341 339 336 334 332 329 328 326 323 321 318 316 314 312 310 307 304 302 300 297 295 292 290 287 284 280 274 270 266 263 261 259 256 254 251 248 245 241 236 233 230 229
342 340 337 335 333 331 329 327 325 323 320 318 317 314 312 310 308 305 302 299 296 294 291 288 286 283 280 276 271 267 263 261 259 256 253 250 248 246 244 238 233 229 227
339 337 335 333 331 330 328 326 324 323 322 320 319 316 314 312 309 307 303 300 297 294 291 287 284 281 278 276 272 268 264 262 259 256 254 251 248 246 244 240 235 231 228
336 334 332 331 330 329 328 327 326 325 324 323 322 320 318 315 313 310 306 303 299 295 292 288 284 280 277 275 272 269 266 263 260 257 255 252 249 245 243 241 237 232 228
333 332 331 331 331 330 329 328 328 328 328 327 325 323 321 318 315 312 309 305 301 297 294 290 286 282 279 276 274 271 268 266 263 259 255 252 249 246 243 240 238 234 229
332 331 332 332 330 330 330 330 331 331 331 329 328 326 324 321 318 315 311 307 304 300 296 292 288 285 282 279 276 274 271 269 265 262 258 253 249 245 242 238 237 235 231
331 331 331 331 331 331 332 333 334 334 333 331 330 329 326 323 320 317 313 309 306 303 299 295 291 288 285 281 279 276 274 271 267 263 259 254 249 244 240 237 235 234 231
330 330 330 332 333 334 334 334 335 335 334 333 332 331 328 325 322 318 315 311 308 305 301 297 294 291 288 285 282 279 276 273 269 265 260 254 249 244 239 236 233 232 231
329 330 331 333 334 335 335 335 335 335 335 334 333 332 330 326 323 320 317 314 311 307 304 301 298 296 293 290 287 283 280 275 271 266 260 255 249 244 239 234 232 230 229
328 330 332 333 334 335 335 335 335 335 335 334 334 333 331 328 325 322 319 316 313 310 308 305 302 300 297 294 291 287 282 278 272 267 261 255 249 243 238 233 230 227 226
328 330 332 333 333 333 334 334 334 335 335 335 334 334 332 330 326 323 321 319 316 314 312 309 305 303 301 297 293 289 285 281 274 267 260 253 247 241 236 231 227 224 224
328 330 331 332 332 332 333 333 334 334 335 335 335 334 333 331 328 325 323 321 319 317 315 312 309 307 304 300 296 291 287 282 276 268 259 251 244 238 233 228 224 221 220
327 328 329 330 330 331 331 332 333 333 335 336 336 335 334 332 329 327 325 323 322 320 318 316 313 310 308 305 300 294 290 285 276 267 257 248 240 233 229 225 221 219 218
325 326 328 329 329 330 331 331 332 333 335 336 337 336 335 334 331 330 328 327 325 323 321 320 317 315 313 310 306 300 294 287 276 267 255 245 236 229 225 221 218 216 215
324 326 327 328 329 329 330 331 332 333 335 337 337 337 336 335 334 333 332 331 329 327 325 324 322 320 319 317 314 308 301 292 281 267 251 238 230 223 219 216 213 213 213
323 325 326 327 328 328 329 330 332 334 335 337 338 338 337 336 335 335 335 334 333 332 330 329 328 326 326 325 321 317 311 300 286 265 244 232 223 216 212 209 208 210 211
323 324 326 327 327 328 329 330 331 333 335 337 338 339 338 338 337 337 337 337 337 336 334 334 333 332 332 331 329 325 320 313 295 261 230 217 211 206 203 204 205 207 208
323 324 326 326 327 328 328 330 331 334 336 337 338 339 339 339 338 338 339 340 340 340 339 340 339 339 338 338 337 336 330 322 303 240 209 202 200 197 198 201 202 204 205
322 323 324 325 326 327 329 329 330 333 335 337 338 338 338 339 339 339 341 342 343 343 343 343 344 344 344 345 347 349 347 342 308 187 182 186 191 195 197 198 200 202 203
Height
5868 5866 5864 5862 5859 5857 5854 5851 5848 5845 5842 5838 5835 5832 5829 5826 5823 5820 5817 5815 5813 5810 5808 5805 5804 5802 5801 5801 5800 5799 5799 5798 5798 5798 5798 5799 5800 5801 5803 5806 5810 5814 5817
5865 5863 5861 5859 5856 5853 5850 5846 5843 5839 5835 5831 5827 5824 5821 5817 5814 5811 5808 5805 5803 5801 5798 5796 5794 5793 5792 5791 5790 5789 5789 5789 5789 5789 5790 5791 5793 5794 5796 5799 5802 5806 5810
5861 5860 5857 5855 5852 5848 5845 5841 5837 5833 5829 5824 5820 5816 5812 5809 5805 5801 5798 5795 5792 5790 5788 5786 5784 5783 5782 5781 5780 5780 5780 5780 5780 5780 5781 5783 5784 5786 5789 5791 5794 5798 5802
5858 5856 5853 5850 5847 5844 5840 5836 5832 5827 5823 5818 5813 5809 5805 5801 5797 5793 5789 5785 5782 5780 5778 5776 5775 5773 5772 5771 5770 5770 5770 5770 5771 5771 5772 5774 5776 5778 5781 5784 5787 5790 5794
5855 5852 5849 5845 5842 5838 5834 5830 5826 5821 5816 5811 5806 5801 5797 5792 5788 5784 5780 5777 5773 5770 5768 5766 5765 5763 5762 5761 5761 5761 5760 5761 5761 5762 5764 5766 5768 5770 5773 5776 5779 5783 5786
5850 5847 5844 5840 5836 5832 5828 5823 5818 5813 5808 5803 5798 5793 5788 5784 5779 5775 5771 5768 5764 5761 5758 5756 5755 5753 5752 5751 5751 5751 5751 5752 5752 5753 5755 5757 5759 5761 5764 5767 5771 5774 5778
5845 5842 5839 5835 5830 5826 5821 5816 5811 5806 5800 5795 5789 5784 5780 5775 5770 5766 5762 5758 5754 5751 5748 5745 5744 5743 5742 5741 5741 5741 5742 5743 5744 5744 5746 5748 5750 5752 5755 5759 5762 5766 5770
5841 5837 5834 5829 5825 5820 5815 5810 5804 5799 5793 5787 5782 5777 5771 5766 5761 5757 5752 5748 5744 5741 5737 5734 5732 5731 5730 5730 5730 5731 5731 5732 5734 5735 5737 5738 5740 5743 5746 5749 5753 5757 5762
5836 5833 5829 5824 5820 5814 5809 5803 5798 5792 5786 5780 5774 5769 5763 5758 5752 5747 5743 5738 5734 5730 5726 5723 5720 5719 5718 5718 5718 5719 5720 5721 5723 5724 5726 5729 5731 5733 5736 5739 5743 5748 5752
5832 5829 5824 5820 5815 5809 5803 5797 5791 5785 5779 5772 5766 5760 5754 5748 5743 5737 5732 5727 5722 5718 5714 5711 5708 5706 5705 5705 5705 5706 5707 5709 5710 5712 5715 5717 5720 5723 5726 5729 5733 5737 5742
5829 5825 5821 5816 5810 5804 5798 5791 5784 5778 5771 5765 5758 5752 5745 5739 5733 5727 5721 5716 5711 5706 5702 5699 5696 5694 5692 5691 5691 5692 5693 5695 5697 5699 5702 5704 5708 5711 5715 5718 5722 5726 5732
5826 5822 5817 5811 5805 5799 5792 5785 5778 5771 5764 5757 5750 5743 5736 5730 5723 5716 5710 5704 5699 5694 5690 5686 5683 5681 5679 5678 5677 5677 5678 5679 5681 5684 5687 5690 5693 5698 5702 5706 5711 5715 5720
5822 5817 5812 5806 5800 5793 5786 5779 5772 5765 5757 5750 5743 5735 5728 5720 5713 5706 5699 5693 5688 5682 5678 5674 5670 5668 5665 5663 5662 5661 5662 5663 5664 5666 5669 5673 5677 5682 5687 5693 5698 5703 5709
5817 5812 5807 5801 5795 5788 5780 5773 5766 5758 5751 5743 5735 5727 5719 5711 5704 5696 5689 5683 5677 5671 5666 5661 5658 5654 5651 5649 5647 5645 5645 5645 5646 5648 5651 5655 5659 5665 5670 5677 5683 5690 5696
5813 5808 5802 5796 5789 5782 5774 5767 5759 5752 5744 5736 5727 5719 5711 5702 5694 5687 5679 5672 5666 5660 5654 5649 5645 5641 5637 5634 5631 5629 5627 5626 5626 5628 5630 5634 5639 5645 5652 5660 5667 5675 5682
5809 5803 5797 5790 5783 5776 5768 5761 5753 5745 5737 5728 5720 5711 5702 5694 5685 5677 5670 5662 5655 5649 5643 5637 5632 5627 5622 5618 5614 5611 5609 5607 5606 5607 5609 5612 5618 5625 5632 5640 5649 5658 5667
5804 5798 5791 5784 5777 5770 5762 5755 5747 5738 5730 5721 5712 5703 5694 5685 5676 5668 5660 5652 5645 5638 5631 5625 5619 5614 5608 5603 5598 5594 5591 5589 5587 5587 5588 5591 5597 5603 5611 5620 5629 5640 5650
5799 5792 5786 5779 5771 5764 5756 5748 5740 5732 5723 5714 5704 5695 5686 5676 5667 5659 5650 5642 5634 5627 5620 5613 5607 5601 5594 5588 5583 5578 5575 5572 5569 5568 5569 5572 5577 5583 5591 5600 5610 5621 5633
5793 5786 5780 5773 5766 5758 5750 5742 5733 5725 5715 5706 5697 5687 5678 5668 5659 5650 5641 5633 5625 5617 5609 5602 5595 5588 5582 5575 5569 5564 5560 5556 5553 5552 5552 5555 5559 5565 5573 5582 5593 5604 5615
5787 5781 5774 5767 5760 5752 5743 5735 5727 5718 5708 5699 5689 5679 5670 5660 5650 5641 5632 5623 5615 5607 5599 5592 5584 5577 5570 5563 5556 5550 5545 5541 5538 5536 5537 5539 5543 5549 5556 5565 5576 5587 5598
5781 5775 5768 5761 5753 5745 5737 5728 5720 5711 5701 5692 5682 5672 5662 5652 5642 5633 5623 5615 5606 5598 5590 5582 5574 5566 5559 5552 5544 5538 5533 5529 5526 5524 5524 5526 5530 5535 5543 5552 5562 5573 5583
5775 5768 5761 5754 5746 5738 5730 5722 5713 5704 5694 5685 5675 5664 5654 5644 5635 5625 5616 5607 5598 5589 5581 5572 5565 5557 5550 5542 5535 5528 5523 5519 5516 5514 5514 5516 5520 5525 5532 5541 5551 5560 5571
5768 5761 5754 5747 5739 5731 5723 5715 5706 5697 5687 5678 5668 5657 5647 5637 5628 5618 5609 5600 5591 5582 5573 5565 5557 5550 5543 5535 5528 5522 5517 5512 5509 5508 5508 5510 5513 5518 5525 5533 5542 5551 5561
5761 5754 5747 5740 5732 5725 5716 5708 5699 5690 5681 5671 5661 5651 5641 5631 5621 5612 5603 5594 5585 5576 5567 5559 5552 5544 5537 5530 5524 5518 5513 5509 5506 5505 5505 5507 5510 5515 5521 5528 5536 5545 5554
5753 5746 5739 5732 5725 5718 5709 5701 5693 5684 5674 5665 5655 5645 5636 5626 5616 5607 5598 5589 5580 5571 5563 5555 5548 5541 5534 5527 5521 5516 5511 5508 5506 5505 5506 5507 5510 5514 5519 5525 5533 5540 5548
5745 5739 5732 5725 5718 5710 5702 5694 5686 5677 5668 5659 5650 5640 5631 5621 5612 5603 5594 5584 5576 5567 5559 5552 5545 5538 5531 5525 5520 5515 5512 5509 5508 5507 5507 5509 5511 5514 5518 5524 5530 5537 5544